When you browse on this site, cookies collect data to enhance your experience and personalize the content and advertising you see.
Visit our Privacy Policy to learn more. By continuing to use the site, you agree to this use of cookies and data.
  • In Slovakia
  • List of Countries
  • For 7 days
  • Water Temperature
  • Satellite Maps
  • Weather Map
  • Weather Widgets
  • user-avatar
    Login

    Hourly Weather Ondjiwa

    Today, 21 November, Wednesday

    Time Temperature Precipitation Wind Pressure Humidity
    00:00 +29°C° 0 mm 2 mps 666 mmHg 26%
    01:00 +27°C° 0 mm 2 mps 666 mmHg 26%
    02:00 +27°C° 0 mm 2 mps 666 mmHg 25%
    03:00 +26°C° 0 mm 2 mps 666 mmHg 24%
    04:00 +25°C° 0 mm 2 mps 666 mmHg 23%
    05:00 +26°C° 0 mm 2 mps 666 mmHg 20%
    06:00 +27°C° 0 mm 2 mps 667 mmHg 17%
    07:00 +28°C° 0 mm 2 mps 668 mmHg 14%
    08:00 +31°C° 0 mm 2 mps 668 mmHg 12%
    09:00 +34°C° 0 mm 3 mps 668 mmHg 10%
    10:00 +37°C° 0 mm 3 mps 669 mmHg 8%
    11:00 +38°C° 0 mm 3 mps 668 mmHg 8%
    12:00 +39°C° 0 mm 3 mps 668 mmHg 8%
    13:00 +40°C° 0 mm 2 mps 668 mmHg 8%
    14:00 +40°C° 0 mm 3 mps 667 mmHg 8%
    15:00 +40°C° 0 mm 3 mps 666 mmHg 8%
    16:00 +39°C° 0 mm 3 mps 666 mmHg 9%
    17:00 +37°C° 0 mm 3 mps 665 mmHg 10%
    18:00 +35°C° 0 mm 2 mps 665 mmHg 12%
    19:00 +32°C° 0 mm 2 mps 665 mmHg 14%
    20:00 +31°C° 0 mm 2 mps 665 mmHg 15%
    21:00 +31°C° 0 mm 3 mps 666 mmHg 16%
    22:00 +30°C° 0 mm 3 mps 666 mmHg 18%
    23:00 +29°C° 0 mm 3 mps 666 mmHg 19%

    Tomorrow, 22 November, Thursday

    Time Temperature Precipitation Wind Pressure Humidity
    00:00 +28°C° 0 mm 2 mps 666 mmHg 20%
    01:00 +27°C° 0 mm 2 mps 666 mmHg 22%
    02:00 +26°C° 0 mm 2 mps 666 mmHg 26%
    03:00 +26°C° 0 mm 2 mps 666 mmHg 30%
    04:00 +25°C° 0 mm 3 mps 666 mmHg 34%
    05:00 +25°C° 0 mm 3 mps 666 mmHg 37%
    06:00 +26°C° 0 mm 3 mps 667 mmHg 40%
    07:00 +26°C° 0 mm 3 mps 667 mmHg 43%
    08:00 +29°C° 0 mm 3 mps 668 mmHg 35%
    09:00 +31°C° 0 mm 3 mps 668 mmHg 26%
    10:00 +35°C° 0 mm 2 mps 668 mmHg 17%
    11:00 +36°C° 0 mm 2 mps 668 mmHg 15%
    12:00 +38°C° 0 mm 2 mps 667 mmHg 13%
    13:00 +39°C° 0 mm 2 mps 667 mmHg 10%
    14:00 +39°C° 0 mm 2 mps 666 mmHg 10%
    15:00 +39°C° 0 mm 2 mps 666 mmHg 10%
    16:00 +39°C° 0 mm 2 mps 665 mmHg 9%
    17:00 +37°C° 0 mm 2 mps 665 mmHg 10%
    18:00 +35°C° 0 mm 2 mps 665 mmHg 11%
    19:00 +34°C° 0 mm 2 mps 665 mmHg 12%
    20:00 +33°C° 0 mm 3 mps 665 mmHg 12%
    21:00 +33°C° 0 mm 3 mps 666 mmHg 13%
    22:00 +32°C° 0 mm 4 mps 667 mmHg 13%
    23:00 +30°C° 0 mm 3 mps 666 mmHg 16%

    Day after tomorrow, 23 November, Friday

    Time Temperature Precipitation Wind Pressure Humidity
    00:00 +28°C° 0 mm 3 mps 666 mmHg 19%
    01:00 +27°C° 0 mm 3 mps 666 mmHg 21%
    02:00 +26°C° 0 mm 3 mps 666 mmHg 22%
    03:00 +25°C° 0 mm 3 mps 666 mmHg 22%
    04:00 +24°C° 0 mm 3 mps 666 mmHg 22%
    05:00 +26°C° 0 mm 3 mps 666 mmHg 22%
    06:00 +27°C° 0 mm 3 mps 667 mmHg 21%
    07:00 +28°C° 0 mm 3 mps 667 mmHg 20%
    08:00 +30°C° 0 mm 3 mps 668 mmHg 20%
    09:00 +34°C° 0 mm 3 mps 668 mmHg 20%
    10:00 +36°C° 0 mm 3 mps 668 mmHg 20%
    11:00 +38°C° 0 mm 3 mps 668 mmHg 17%
    12:00 +39°C° 0 mm 3 mps 667 mmHg 15%
    13:00 +42°C° 0 mm 3 mps 666 mmHg 12%
    14:00 +40°C° 0 mm 3 mps 666 mmHg 12%
    15:00 +40°C° 0 mm 3 mps 665 mmHg 12%
    16:00 +40°C° 0 mm 3 mps 664 mmHg 12%
    17:00 +38°C° 0 mm 3 mps 664 mmHg 13%
    18:00 +37°C° 0 mm 3 mps 664 mmHg 14%
    19:00 +35°C° 0 mm 3 mps 664 mmHg 15%
    20:00 +34°C° 0 mm 3 mps 665 mmHg 16%
    21:00 +34°C° 0 mm 3 mps 666 mmHg 16%
    22:00 +33°C° 0 mm 3 mps 666 mmHg 17%
    23:00 +32°C° 0 mm 4 mps 666 mmHg 18%

    24 November, Saturday

    Time Temperature Precipitation Wind Pressure Humidity
    00:00 +30°C° 0 mm 4 mps 666 mmHg 20%
    01:00 +29°C° 0 mm 5 mps 666 mmHg 21%
    02:00 +28°C° 0 mm 5 mps 666 mmHg 22%
    03:00 +28°C° 0 mm 4 mps 665 mmHg 22%
    04:00 +27°C° 0 mm 4 mps 665 mmHg 23%
    05:00 +27°C° 0 mm 4 mps 666 mmHg 21%
    06:00 +28°C° 0 mm 4 mps 667 mmHg 19%
    07:00 +29°C° 0 mm 5 mps 667 mmHg 18%
    08:00 +32°C° 0 mm 4 mps 668 mmHg 18%
    09:00 +35°C° 0 mm 3 mps 668 mmHg 18%
    10:00 +37°C° 0 mm 2 mps 669 mmHg 18%
    11:00 +38°C° 0 mm 2 mps 668 mmHg 18%
    12:00 +39°C° 0 mm 2 mps 667 mmHg 18%
    13:00 +40°C° 0 mm 2 mps 667 mmHg 17%
    14:00 +39°C° 0 mm 3 mps 666 mmHg 20%
    15:00 +37°C° 0 mm 4 mps 665 mmHg 22%
    16:00 +36°C° 0 mm 5 mps 665 mmHg 25%
    17:00 +35°C° 0 mm 4 mps 665 mmHg 27%
    18:00 +34°C° 0 mm 3 mps 665 mmHg 29%
    19:00 +32°C° 0 mm 2 mps 665 mmHg 31%
    20:00 +31°C° 0 mm 2 mps 666 mmHg 33%
    21:00 +30°C° 0 mm 2 mps 666 mmHg 36%
    22:00 +30°C° 0 mm 1 mps 666 mmHg 38%
    23:00 +29°C° 0 mm 2 mps 666 mmHg 36%

    25 November, Sunday

    Time Temperature Precipitation Wind Pressure Humidity
    00:00 +29°C° 0 mm 3 mps 666 mmHg 35%
    01:00 +29°C° 0 mm 4 mps 666 mmHg 34%
    02:00 +28°C° 0 mm 4 mps 666 mmHg 31%
    03:00 +28°C° 0 mm 3 mps 666 mmHg 28%
    04:00 +27°C° 0 mm 3 mps 666 mmHg 26%
    05:00 +28°C° 0 mm 3 mps 666 mmHg 25%
    06:00 +29°C° 0 mm 3 mps 667 mmHg 23%
    07:00 +30°C° 0 mm 3 mps 668 mmHg 22%
    08:00 +33°C° 0 mm 3 mps 668 mmHg 22%
    09:00 +35°C° 0 mm 3 mps 668 mmHg 21%
    10:00 +37°C° 0 mm 3 mps 669 mmHg 21%
    11:00 +38°C° 0 mm 3 mps 668 mmHg 20%
    12:00 +38°C° 0 mm 2 mps 667 mmHg 20%
    13:00 +39°C° 0 mm 2 mps 666 mmHg 20%
    14:00 +39°C° 0 mm 2 mps 666 mmHg 20%
    15:00 +39°C° 0 mm 2 mps 665 mmHg 20%
    16:00 +38°C° 0 mm 2 mps 665 mmHg 20%
    17:00 +37°C° 0 mm 2 mps 665 mmHg 23%
    18:00 +36°C° 0 mm 2 mps 665 mmHg 25%
    19:00 +35°C° 0 mm 2 mps 665 mmHg 27%
    20:00 +33°C° 0.2 mm 3 mps 666 mmHg 30%
    21:00 +31°C° 0.2 mm 3 mps 666 mmHg 32%
    22:00 +30°C° 0.2 mm 3 mps 666 mmHg 35%
    23:00 +29°C° 0.9 mm 3 mps 666 mmHg 38%

    26 November, Monday

    Time Temperature Precipitation Wind Pressure Humidity
    00:00 +28°C° 0.9 mm 2 mps 665 mmHg 42%
    01:00 +26°C° 0.9 mm 2 mps 665 mmHg 45%
    02:00 +26°C° 0.7 mm 2 mps 665 mmHg 44%
    03:00 +26°C° 0.7 mm 3 mps 665 mmHg 44%
    04:00 +25°C° 0.7 mm 3 mps 665 mmHg 44%
    05:00 +26°C° 0.1 mm 3 mps 665 mmHg 40%
    06:00 +27°C° 0.1 mm 3 mps 666 mmHg 36%
    07:00 +28°C° 0.1 mm 3 mps 666 mmHg 32%
    08:00 +30°C° 0 mm 3 mps 667 mmHg 29%
    09:00 +33°C° 0 mm 3 mps 667 mmHg 26%
    10:00 +35°C° 0 mm 3 mps 667 mmHg 23%
    11:00 +36°C° 0 mm 2 mps 666 mmHg 22%
    12:00 +38°C° 0 mm 2 mps 666 mmHg 21%
    13:00 +39°C° 0 mm 2 mps 665 mmHg 19%
    14:00 +39°C° 0 mm 2 mps 665 mmHg 20%
    15:00 +38°C° 0 mm 2 mps 664 mmHg 20%
    16:00 +38°C° 0 mm 2 mps 664 mmHg 20%
    17:00 +37°C° 0 mm 2 mps 664 mmHg 22%
    18:00 +36°C° 0 mm 2 mps 664 mmHg 24%
    19:00 +33°C° 0 mm 1 mps 664 mmHg 25%
    20:00 +34°C° 0 mm 2 mps 664 mmHg 26%
    21:00 +33°C° 0 mm 3 mps 665 mmHg 27%
    22:00 +32°C° 0 mm 4 mps 665 mmHg 28%
    23:00 +30°C° 0 mm 4 mps 665 mmHg 26%
    Show more